EDT,Max TemperatureF,Mean TemperatureF,Min TemperatureF,Max Dew PointF,MeanDew PointF,Min DewpointF,Max Humidity, Mean Humidity, Min Humidity, Max Sea Level PressureIn, Mean Sea Level PressureIn, Min Sea Level PressureIn, Max VisibilityMiles, Mean VisibilityMiles, Min VisibilityMiles, Max Wind SpeedMPH, Mean Wind SpeedMPH, Max Gust SpeedMPH,PrecipitationIn, CloudCover, Events, WindDirDegrees
2014-3-1,44,27,10,29,19,6,85,65,44,30.42,30.32,30.20,10,10,10,14,3,17,0.00,2,,199
2014-3-2,52,39,25,34,30,24,100,71,41,30.18,30.06,29.98,10,6,0,15,5,20,0.09,6,Fog-Rain,323
2014-3-3,34,18,2,33,18,1,100,78,56,30.33,30.12,29.97,10,4,0,22,12,30,0.56,7,Fog-Rain-Snow,350
2014-3-4,32,19,6,16,8,-2,92,68,43,30.42,30.34,30.26,10,10,10,13,5,15,0.00,0,,9
2014-3-5,41,29,16,25,18,12,92,63,34,30.40,30.26,30.19,10,10,10,14,5,17,0.00,1,,25
2014-3-6,32,27,21,22,17,12,75,63,50,30.59,30.50,30.41,10,10,10,20,12,25,0.00,3,,46
2014-3-7,38,34,30,31,29,23,89,79,69,30.40,30.15,29.87,10,10,8,23,14,32,T,7,,41
2014-3-8,60,45,30,34,32,29,100,66,32,29.92,29.88,29.82,10,10,7,26,9,35,0.00,4,,314
2014-3-9,49,41,32,37,27,16,92,62,31,30.04,29.98,29.90,10,8,2,22,10,27,0.01,5,Rain,315
2014-3-10,57,45,32,33,26,16,70,53,35,29.97,29.82,29.66,10,10,10,17,9,25,0.00,2,,227
2014-3-11,69,55,41,38,34,31,70,51,32,29.71,29.66,29.61,10,10,10,22,8,26,0.00,0,,254
2014-3-12,58,44,30,52,44,28,93,77,61,29.68,29.32,29.05,10,8,2,36,12,47,0.34,4,Rain,197
2014-3-13,32,26,19,27,7,-1,72,43,15,30.13,29.68,29.24,10,10,10,36,28,48,0.00,2,,299
2014-3-14,43,32,20,32,16,3,67,46,25,30.26,30.15,29.96,10,10,10,24,13,33,0.00,3,,211
2014-3-15,63,52,41,32,28,23,67,45,23,30.02,29.88,29.82,10,10,10,36,15,45,T,1,Rain,262
2014-3-16,46,36,26,27,20,7,92,56,20,30.19,30.14,30.03,10,8,1,18,9,22,0.15,4,Snow,18
2014-3-17,28,26,24,27,22,16,92,75,58,30.12,30.03,29.99,10,3,0,22,12,28,0.37,8,Fog-Snow,27
2014-3-18,38,31,23,30,25,17,82,71,59,30.26,30.19,30.10,10,10,10,26,13,34,0.00,7,,50
2014-3-19,53,45,36,51,40,30,96,84,71,30.25,30.05,29.83,10,8,1,22,12,34,0.42,8,Rain,103
2014-3-20,58,49,39,46,37,23,100,66,32,29.95,29.83,29.77,10,8,3,25,13,35,0.00,5,,281
2014-3-21,56,43,30,28,24,20,75,50,24,30.07,30.02,29.97,10,10,10,23,9,30,0.00,0,,273
2014-3-22,67,49,30,38,33,26,92,60,28,30.05,29.90,29.80,10,10,9,24,11,33,0.00,0,,231
2014-3-23,50,39,28,27,23,10,64,51,38,30.11,30.03,29.98,10,10,10,16,9,26,0.00,4,,347
2014-3-24,37,27,17,10,5,2,57,40,23,30.29,30.20,30.12,10,10,10,21,10,27,0.00,0,,329
2014-3-25,39,27,15,30,23,7,92,66,40,30.18,29.98,29.82,10,5,0,16,8,23,0.38,6,Fog-Snow,62
2014-3-26,35,28,21,28,19,4,100,66,32,30.27,29.91,29.77,10,7,2,35,18,43,0.02,4,Snow,321
2014-3-27,41,27,12,27,13,5,67,48,29,30.46,30.38,30.29,10,10,10,17,7,23,0.00,0,,217
2014-3-28,60,50,39,47,41,30,89,76,62,30.27,30.13,30.03,10,10,10,21,11,29,0.00,6,,191
2014-3-29,58,52,46,56,49,45,100,92,83,30.13,29.98,29.61,10,3,1,23,9,36,2.28,8,Rain,98
2014-3-30,56,47,38,56,49,38,100,95,89,29.66,29.48,29.42,10,3,0,26,11,33,0.38,8,Fog-Rain,2
2014-3-31,57,47,37,37,35,31,92,68,43,30.07,29.85,29.66,10,9,2,25,15,32,T,6,Rain,330